Year,Month,Day,Hour,Minute,Value (Times are PST for temperature in C)
2010,10,19,00,00,8.10
2010,10,19,00,01,8.10
2010,10,19,00,02,8.00
2010,10,19,00,03,8.00
2010,10,19,00,04,8.00
2010,10,19,00,05,8.00
2010,10,19,00,06,8.00
2010,10,19,00,07,8.00
2010,10,19,00,08,8.00
2010,10,19,00,09,8.00
2010,10,19,00,10,7.90
2010,10,19,00,11,7.90
2010,10,19,00,12,7.90
2010,10,19,00,13,7.90
2010,10,19,00,14,7.80
2010,10,19,00,15,7.80
2010,10,19,00,16,7.80
2010,10,19,00,17,7.80
2010,10,19,00,18,7.80
2010,10,19,00,19,7.80
2010,10,19,00,20,7.80
2010,10,19,00,21,7.80
2010,10,19,00,22,7.80
2010,10,19,00,23,7.80
2010,10,19,00,24,7.80
2010,10,19,00,25,7.80
2010,10,19,00,26,7.80
2010,10,19,00,27,7.80
2010,10,19,00,28,7.80
2010,10,19,00,29,7.80
2010,10,19,00,30,7.80
2010,10,19,00,31,7.80
2010,10,19,00,32,7.80
2010,10,19,00,33,7.80
2010,10,19,00,34,7.80
2010,10,19,00,35,7.80
2010,10,19,00,36,7.80
2010,10,19,00,37,7.80
2010,10,19,00,38,7.70
2010,10,19,00,39,7.70
2010,10,19,00,40,7.70
2010,10,19,00,41,7.60
2010,10,19,00,42,7.60
2010,10,19,00,43,7.60
2010,10,19,00,44,7.60
2010,10,19,00,45,7.60
2010,10,19,00,46,7.60
2010,10,19,00,47,7.50
2010,10,19,00,48,7.50
2010,10,19,00,49,7.50
2010,10,19,00,50,7.50
2010,10,19,00,51,7.40
2010,10,19,00,52,7.40
2010,10,19,00,53,7.40
2010,10,19,00,54,7.40
2010,10,19,00,55,7.40
2010,10,19,00,56,7.30
2010,10,19,00,57,7.30
2010,10,19,00,58,7.30
2010,10,19,00,59,7.30
2010,10,19,01,00,7.30
2010,10,19,01,01,7.30
2010,10,19,01,02,7.30
2010,10,19,01,03,7.30
2010,10,19,01,04,7.30
2010,10,19,01,05,7.30
2010,10,19,01,06,7.40
2010,10,19,01,07,7.40
2010,10,19,01,08,7.40
2010,10,19,01,09,7.40
2010,10,19,01,10,7.40
2010,10,19,01,11,7.40
2010,10,19,01,12,7.40
2010,10,19,01,13,7.30
2010,10,19,01,14,7.30
2010,10,19,01,15,7.30
2010,10,19,01,16,7.30
2010,10,19,01,17,7.30
2010,10,19,01,18,7.30
2010,10,19,01,19,7.30
2010,10,19,01,20,7.30
2010,10,19,01,21,7.30
2010,10,19,01,22,7.30
2010,10,19,01,23,7.30
2010,10,19,01,24,7.30
2010,10,19,01,25,7.30
2010,10,19,01,26,7.30
2010,10,19,01,27,7.30
2010,10,19,01,28,7.30
2010,10,19,01,29,7.30
2010,10,19,01,30,7.30
2010,10,19,01,31,7.30
2010,10,19,01,32,7.30
2010,10,19,01,33,7.30
2010,10,19,01,34,7.30
2010,10,19,01,35,7.30
2010,10,19,01,36,7.30
2010,10,19,01,37,7.30
2010,10,19,01,38,7.30
2010,10,19,01,39,7.30
2010,10,19,01,40,7.30
2010,10,19,01,41,7.30
2010,10,19,01,42,7.30
2010,10,19,01,43,7.30
2010,10,19,01,44,7.30
2010,10,19,01,45,7.30
2010,10,19,01,46,7.30
2010,10,19,01,47,7.20
2010,10,19,01,48,7.20
2010,10,19,01,49,7.20
2010,10,19,01,50,7.20
2010,10,19,01,51,7.20
2010,10,19,01,52,7.10
2010,10,19,01,53,7.10
2010,10,19,01,54,7.10
2010,10,19,01,55,7.10
2010,10,19,01,56,7.00
2010,10,19,01,57,7.00
2010,10,19,01,58,7.00
2010,10,19,01,59,7.00
2010,10,19,02,00,6.90
2010,10,19,02,01,6.90
2010,10,19,02,02,6.90
2010,10,19,02,03,7.00
2010,10,19,02,04,7.00
2010,10,19,02,05,7.10
2010,10,19,02,06,7.10
2010,10,19,02,07,7.20
2010,10,19,02,08,7.30
2010,10,19,02,09,7.30
2010,10,19,02,10,7.30
2010,10,19,02,11,7.30
2010,10,19,02,12,7.30
2010,10,19,02,13,7.30
2010,10,19,02,14,7.40
2010,10,19,02,15,7.40
2010,10,19,02,16,7.50
2010,10,19,02,17,7.50
2010,10,19,02,18,7.60
2010,10,19,02,19,7.60
2010,10,19,02,20,7.70
2010,10,19,02,21,7.70
2010,10,19,02,22,7.70
2010,10,19,02,23,7.80
2010,10,19,02,24,7.80
2010,10,19,02,25,7.80
2010,10,19,02,26,7.80
2010,10,19,02,27,7.80
2010,10,19,02,28,7.80
2010,10,19,02,29,7.80
2010,10,19,02,30,7.80
2010,10,19,02,31,7.80
2010,10,19,02,32,7.90
2010,10,19,02,33,7.90
2010,10,19,02,34,7.90
2010,10,19,02,35,7.90
2010,10,19,02,36,7.90
2010,10,19,02,37,7.90
2010,10,19,02,38,7.80
2010,10,19,02,39,7.80
2010,10,19,02,40,7.80
2010,10,19,02,41,7.80
2010,10,19,02,42,7.80
2010,10,19,02,43,7.80
2010,10,19,02,44,7.80
2010,10,19,02,45,7.80
2010,10,19,02,46,7.80
2010,10,19,02,47,7.80
2010,10,19,02,48,7.80
2010,10,19,02,49,7.80
2010,10,19,02,50,7.80
2010,10,19,02,51,7.80
2010,10,19,02,52,7.80
2010,10,19,02,53,7.80
2010,10,19,02,54,7.80
2010,10,19,02,55,7.80
2010,10,19,02,56,7.80
2010,10,19,02,57,7.80
2010,10,19,02,58,7.70
2010,10,19,02,59,7.70
2010,10,19,03,00,7.70
2010,10,19,03,01,7.70
2010,10,19,03,02,7.60
2010,10,19,03,03,7.60
2010,10,19,03,04,7.60
2010,10,19,03,05,7.50
2010,10,19,03,06,7.50
2010,10,19,03,07,7.40
2010,10,19,03,08,7.30
2010,10,19,03,09,7.30
2010,10,19,03,10,7.20
2010,10,19,03,11,7.10
2010,10,19,03,12,7.00
2010,10,19,03,13,7.00
2010,10,19,03,14,6.90
2010,10,19,03,15,6.80
2010,10,19,03,16,6.80
2010,10,19,03,17,6.70
2010,10,19,03,18,6.70
2010,10,19,03,19,6.70
2010,10,19,03,20,6.60
2010,10,19,03,21,6.60
2010,10,19,03,22,6.60
2010,10,19,03,23,6.60
2010,10,19,03,24,6.60
2010,10,19,03,25,6.60
2010,10,19,03,26,6.60
2010,10,19,03,27,6.60
2010,10,19,03,28,6.60
2010,10,19,03,29,6.50
2010,10,19,03,30,6.40
2010,10,19,03,31,6.40
2010,10,19,03,32,6.40
2010,10,19,03,33,6.40
2010,10,19,03,34,6.40
2010,10,19,03,35,6.40
2010,10,19,03,36,6.30
2010,10,19,03,37,6.30
2010,10,19,03,38,6.30
2010,10,19,03,39,6.20
2010,10,19,03,40,6.20
2010,10,19,03,41,6.20
2010,10,19,03,42,6.20
2010,10,19,03,43,6.20
2010,10,19,03,44,6.20
2010,10,19,03,45,6.20
2010,10,19,03,46,6.20
2010,10,19,03,47,6.30
2010,10,19,03,48,6.30
2010,10,19,03,49,6.30
2010,10,19,03,50,6.30
2010,10,19,03,51,6.30
2010,10,19,03,52,6.40
2010,10,19,03,53,6.40
2010,10,19,03,54,6.40
2010,10,19,03,55,6.50
2010,10,19,03,56,6.60
2010,10,19,03,57,6.60
2010,10,19,03,58,6.60
2010,10,19,03,59,6.60
2010,10,19,04,00,6.40
2010,10,19,04,01,6.40
2010,10,19,04,02,6.40
2010,10,19,04,03,6.40
2010,10,19,04,04,6.40
2010,10,19,04,05,6.40
2010,10,19,04,06,6.40
2010,10,19,04,07,6.40
2010,10,19,04,08,6.40
2010,10,19,04,09,6.40
2010,10,19,04,10,6.40
2010,10,19,04,11,6.40
2010,10,19,04,12,6.40
2010,10,19,04,13,6.40
2010,10,19,04,14,6.40
2010,10,19,04,15,6.40
2010,10,19,04,16,6.40
2010,10,19,04,17,6.50
2010,10,19,04,18,6.60
2010,10,19,04,19,6.60
2010,10,19,04,20,6.60
2010,10,19,04,21,6.60
2010,10,19,04,22,6.60
2010,10,19,04,23,6.60
2010,10,19,04,24,6.60
2010,10,19,04,25,6.60
2010,10,19,04,26,6.60
2010,10,19,04,27,6.60
2010,10,19,04,28,6.70
2010,10,19,04,29,6.70
2010,10,19,04,30,6.70
2010,10,19,04,31,6.80
2010,10,19,04,32,6.80
2010,10,19,04,33,6.80
2010,10,19,04,34,6.80
2010,10,19,04,35,6.80
2010,10,19,04,36,6.80
2010,10,19,04,37,6.80
2010,10,19,04,38,6.80
2010,10,19,04,39,6.80
2010,10,19,04,40,6.80
2010,10,19,04,41,6.80
2010,10,19,04,42,6.80
2010,10,19,04,43,6.80
2010,10,19,04,44,6.80
2010,10,19,04,45,6.80
2010,10,19,04,46,6.70
2010,10,19,04,47,6.70
2010,10,19,04,48,6.60
2010,10,19,04,49,6.60
2010,10,19,04,50,6.60
2010,10,19,04,51,6.60
2010,10,19,04,52,6.60
2010,10,19,04,53,6.60
2010,10,19,04,54,6.60
2010,10,19,04,55,6.60
2010,10,19,04,56,6.60
2010,10,19,04,57,6.60
2010,10,19,04,58,6.60
2010,10,19,04,59,6.70
2010,10,19,05,00,6.70
2010,10,19,05,01,6.80
2010,10,19,05,02,6.80
2010,10,19,05,03,6.90
2010,10,19,05,04,7.00
2010,10,19,05,05,7.00
2010,10,19,05,06,7.10
2010,10,19,05,07,7.20
2010,10,19,05,08,7.20
2010,10,19,05,09,7.30
2010,10,19,05,10,7.30
2010,10,19,05,11,7.30
2010,10,19,05,12,7.30
2010,10,19,05,13,7.30
2010,10,19,05,14,7.30
2010,10,19,05,15,7.30
2010,10,19,05,16,7.40
2010,10,19,05,17,7.40
2010,10,19,05,18,7.40
2010,10,19,05,19,7.50
2010,10,19,05,20,7.50
2010,10,19,05,21,7.60
2010,10,19,05,22,7.60
2010,10,19,05,23,7.60
2010,10,19,05,24,7.60
2010,10,19,05,25,7.60
2010,10,19,05,26,7.50
2010,10,19,05,27,7.40
2010,10,19,05,28,7.40
2010,10,19,05,29,7.30
2010,10,19,05,30,7.30
2010,10,19,05,31,7.30
2010,10,19,05,32,7.20
2010,10,19,05,33,7.20
2010,10,19,05,34,7.20
2010,10,19,05,35,7.20
2010,10,19,05,36,7.30
2010,10,19,05,37,7.30
2010,10,19,05,38,7.20
2010,10,19,05,39,7.20
2010,10,19,05,40,7.20
2010,10,19,05,41,7.20
2010,10,19,05,42,7.20
2010,10,19,05,43,7.20
2010,10,19,05,44,7.10
2010,10,19,05,45,7.10
2010,10,19,05,46,7.00
2010,10,19,05,47,7.00
2010,10,19,05,48,7.00
2010,10,19,05,49,7.00
2010,10,19,05,50,6.90
2010,10,19,05,51,6.90
2010,10,19,05,52,6.90
2010,10,19,05,53,6.90
2010,10,19,05,54,6.90
2010,10,19,05,55,6.90
2010,10,19,05,56,6.90
2010,10,19,05,57,6.90
2010,10,19,05,58,6.90
2010,10,19,05,59,6.90
2010,10,19,06,00,6.90
2010,10,19,06,01,7.00
2010,10,19,06,02,7.00
2010,10,19,06,03,7.10
2010,10,19,06,04,7.10
2010,10,19,06,05,7.20
2010,10,19,06,06,7.20
2010,10,19,06,07,7.30
2010,10,19,06,08,7.20
2010,10,19,06,09,7.20
2010,10,19,06,10,7.20
2010,10,19,06,11,7.20
2010,10,19,06,12,7.20
2010,10,19,06,13,7.20
2010,10,19,06,14,7.20
2010,10,19,06,15,7.20
2010,10,19,06,16,7.20
2010,10,19,06,17,7.20
2010,10,19,06,18,7.20
2010,10,19,06,19,7.20
2010,10,19,06,20,7.20
2010,10,19,06,21,7.20
2010,10,19,06,22,7.20
2010,10,19,06,23,7.20
2010,10,19,06,24,7.20
2010,10,19,06,25,7.20
2010,10,19,06,26,7.20
2010,10,19,06,27,7.20
2010,10,19,06,28,7.30
2010,10,19,06,29,7.30
2010,10,19,06,30,7.30
2010,10,19,06,31,7.30
2010,10,19,06,32,7.30
2010,10,19,06,33,7.30
2010,10,19,06,34,7.30
2010,10,19,06,35,7.30
2010,10,19,06,36,7.30
2010,10,19,06,37,7.20
2010,10,19,06,38,7.20
2010,10,19,06,39,7.20
2010,10,19,06,40,7.20
2010,10,19,06,41,7.20
2010,10,19,06,42,7.20
2010,10,19,06,43,7.20
2010,10,19,06,44,7.20
2010,10,19,06,45,7.20
2010,10,19,06,46,7.20
2010,10,19,06,47,7.20
2010,10,19,06,48,7.20
2010,10,19,06,49,7.20
2010,10,19,06,50,7.20
2010,10,19,06,51,7.20
2010,10,19,06,52,7.20
2010,10,19,06,53,7.20
2010,10,19,06,54,7.20
2010,10,19,06,55,7.20
2010,10,19,06,56,7.20
2010,10,19,06,57,7.20
2010,10,19,06,58,7.20
2010,10,19,06,59,7.10
2010,10,19,07,00,7.00
2010,10,19,07,01,6.90
2010,10,19,07,02,6.80
2010,10,19,07,03,6.70
2010,10,19,07,04,6.70
2010,10,19,07,05,6.60
2010,10,19,07,06,6.60
2010,10,19,07,07,6.60
2010,10,19,07,08,6.60
2010,10,19,07,09,6.60
2010,10,19,07,10,6.60
2010,10,19,07,11,6.60
2010,10,19,07,12,6.60
2010,10,19,07,13,6.60
2010,10,19,07,14,6.60
2010,10,19,07,15,6.60
2010,10,19,07,16,6.60
2010,10,19,07,17,6.60
2010,10,19,07,18,6.60
2010,10,19,07,19,6.60
2010,10,19,07,20,6.70
2010,10,19,07,21,6.70
2010,10,19,07,22,6.70
2010,10,19,07,23,6.70
2010,10,19,07,24,6.70
2010,10,19,07,25,6.60
2010,10,19,07,26,6.60
2010,10,19,07,27,6.60
2010,10,19,07,28,6.50
2010,10,19,07,29,6.40
2010,10,19,07,30,6.40
2010,10,19,07,31,6.40
2010,10,19,07,32,6.40
2010,10,19,07,33,6.40
2010,10,19,07,34,6.40
2010,10,19,07,35,6.40
2010,10,19,07,36,6.40
2010,10,19,07,37,6.30
2010,10,19,07,38,6.30
2010,10,19,07,39,6.30
2010,10,19,07,40,6.30
2010,10,19,07,41,6.30
2010,10,19,07,42,6.30
2010,10,19,07,43,6.30
2010,10,19,07,44,6.30
2010,10,19,07,45,6.30
2010,10,19,07,46,6.30
2010,10,19,07,47,6.30
2010,10,19,07,48,6.30
2010,10,19,07,49,6.30
2010,10,19,07,50,6.20
2010,10,19,07,51,6.20
2010,10,19,07,52,6.20
2010,10,19,07,53,6.20
2010,10,19,07,54,6.20
2010,10,19,07,55,6.30
2010,10,19,07,56,6.30
2010,10,19,07,57,6.30
2010,10,19,07,58,6.30
2010,10,19,07,59,6.30
2010,10,19,08,00,6.30
2010,10,19,08,01,6.30
2010,10,19,08,02,6.30
2010,10,19,08,03,6.30
2010,10,19,08,04,6.30
2010,10,19,08,05,6.20
2010,10,19,08,06,6.20
2010,10,19,08,07,6.20
2010,10,19,08,08,6.20
2010,10,19,08,09,6.20
2010,10,19,08,10,6.20
2010,10,19,08,11,6.20
2010,10,19,08,12,6.20
2010,10,19,08,13,6.30
2010,10,19,08,14,6.30
2010,10,19,08,15,6.30
2010,10,19,08,16,6.30
2010,10,19,08,17,6.30
2010,10,19,08,18,6.30
2010,10,19,08,19,6.40
2010,10,19,08,20,6.40
2010,10,19,08,21,6.40
2010,10,19,08,22,6.40
2010,10,19,08,23,6.50
2010,10,19,08,24,6.60
2010,10,19,08,25,6.60
2010,10,19,08,26,6.60
2010,10,19,08,27,6.70
2010,10,19,08,28,6.70
2010,10,19,08,29,6.70
2010,10,19,08,30,6.70
2010,10,19,08,31,6.70
2010,10,19,08,32,6.80
2010,10,19,08,33,6.80
2010,10,19,08,34,6.80
2010,10,19,08,35,6.80
2010,10,19,08,36,6.80
2010,10,19,08,37,6.80
2010,10,19,08,38,6.90
2010,10,19,08,39,6.90
2010,10,19,08,40,7.00
2010,10,19,08,41,7.00
2010,10,19,08,42,7.00
2010,10,19,08,43,7.00
2010,10,19,08,44,7.10
2010,10,19,08,45,7.10
2010,10,19,08,46,7.20
2010,10,19,08,47,7.20
2010,10,19,08,48,7.20
2010,10,19,08,49,7.30
2010,10,19,08,50,7.30
2010,10,19,08,51,7.30
2010,10,19,08,52,7.30
2010,10,19,08,53,7.30
2010,10,19,08,54,7.30
2010,10,19,08,55,7.40
2010,10,19,08,56,7.40
2010,10,19,08,57,7.40
2010,10,19,08,58,7.40
2010,10,19,08,59,7.40
2010,10,19,09,00,7.50
2010,10,19,09,01,7.50
2010,10,19,09,02,7.60
2010,10,19,09,03,7.60
2010,10,19,09,04,7.60
2010,10,19,09,05,7.60
2010,10,19,09,06,7.60
2010,10,19,09,07,7.70
2010,10,19,09,08,7.70
2010,10,19,09,09,7.70
2010,10,19,09,10,7.70
2010,10,19,09,11,7.80
2010,10,19,09,12,7.80
2010,10,19,09,13,7.80
2010,10,19,09,14,7.80
2010,10,19,09,15,7.80
2010,10,19,09,16,7.90
2010,10,19,09,17,7.90
2010,10,19,09,18,8.00
2010,10,19,09,19,8.00
2010,10,19,09,20,8.00
2010,10,19,09,21,8.10
2010,10,19,09,22,8.20
2010,10,19,09,23,8.20
2010,10,19,09,24,8.20
2010,10,19,09,25,8.30
2010,10,19,09,26,8.40
2010,10,19,09,27,8.50
2010,10,19,09,28,8.50
2010,10,19,09,29,8.60
2010,10,19,09,30,8.60
2010,10,19,09,31,8.70
2010,10,19,09,32,8.70
2010,10,19,09,33,8.80
2010,10,19,09,34,8.80
2010,10,19,09,35,8.90
2010,10,19,09,36,9.00
2010,10,19,09,37,9.10
2010,10,19,09,38,9.10
2010,10,19,09,39,9.20
2010,10,19,09,40,9.20
2010,10,19,09,41,9.30
2010,10,19,09,42,9.40
2010,10,19,09,43,9.50
2010,10,19,09,44,9.60
2010,10,19,09,45,9.70
2010,10,19,09,46,9.90
2010,10,19,09,47,9.90
2010,10,19,09,48,9.90
2010,10,19,09,49,10.00
2010,10,19,09,50,10.00
2010,10,19,09,51,9.90
2010,10,19,09,52,9.90
2010,10,19,09,53,9.90
2010,10,19,09,54,9.70
2010,10,19,09,55,9.70
2010,10,19,09,56,9.70
2010,10,19,09,57,9.70
2010,10,19,09,58,9.70
2010,10,19,09,59,9.70
2010,10,19,10,00,9.60
2010,10,19,10,01,9.60
2010,10,19,10,02,9.60
2010,10,19,10,03,9.50
2010,10,19,10,04,9.50
2010,10,19,10,05,9.50
2010,10,19,10,06,9.50
2010,10,19,10,07,9.50
2010,10,19,10,08,9.60
2010,10,19,10,09,9.60
2010,10,19,10,10,9.70
2010,10,19,10,11,9.70
2010,10,19,10,12,9.90
2010,10,19,10,13,9.90
2010,10,19,10,14,9.90
2010,10,19,10,15,9.90
2010,10,19,10,16,9.90
2010,10,19,10,17,9.90
2010,10,19,10,18,9.90
2010,10,19,10,19,9.90
2010,10,19,10,20,9.90
2010,10,19,10,21,9.90
2010,10,19,10,22,9.90
2010,10,19,10,23,10.00
2010,10,19,10,24,10.10
2010,10,19,10,25,10.20
2010,10,19,10,26,10.30
2010,10,19,10,27,10.40
2010,10,19,10,28,10.40
2010,10,19,10,29,10.40
2010,10,19,10,30,10.50
2010,10,19,10,31,10.50
2010,10,19,10,32,10.60
2010,10,19,10,33,10.60
2010,10,19,10,34,10.60
2010,10,19,10,35,10.60
2010,10,19,10,36,10.70
2010,10,19,10,37,10.70
2010,10,19,10,38,10.60
2010,10,19,10,39,10.60
2010,10,19,10,40,10.60
2010,10,19,10,41,10.70
2010,10,19,10,42,10.80
2010,10,19,10,43,10.90
2010,10,19,10,44,10.90
2010,10,19,10,45,10.90
2010,10,19,10,46,10.90
2010,10,19,10,47,10.90
2010,10,19,10,48,11.00
2010,10,19,10,49,11.10
2010,10,19,10,50,11.10
2010,10,19,10,51,11.10
2010,10,19,10,52,11.20
2010,10,19,10,53,11.30
2010,10,19,10,54,11.30
2010,10,19,10,55,11.50
2010,10,19,10,56,11.60
2010,10,19,10,57,11.60
2010,10,19,10,58,11.60
2010,10,19,10,59,11.60
2010,10,19,11,00,11.70
2010,10,19,11,01,11.80
2010,10,19,11,02,11.80
2010,10,19,11,03,11.80
2010,10,19,11,04,11.90
2010,10,19,11,05,11.90
2010,10,19,11,06,12.00
2010,10,19,11,07,12.00
2010,10,19,11,08,12.00
2010,10,19,11,09,12.10
2010,10,19,11,10,12.10
2010,10,19,11,11,12.10
2010,10,19,11,12,12.10
2010,10,19,11,13,12.10
2010,10,19,11,14,12.20
2010,10,19,11,15,12.30
2010,10,19,11,16,12.40
2010,10,19,11,17,12.40
2010,10,19,11,18,12.50
2010,10,19,11,19,12.50
2010,10,19,11,20,12.50
2010,10,19,11,21,12.60
2010,10,19,11,22,12.70
2010,10,19,11,23,12.70
2010,10,19,11,24,12.70
2010,10,19,11,25,12.70
2010,10,19,11,26,12.70
2010,10,19,11,27,12.80
2010,10,19,11,28,12.80
2010,10,19,11,29,12.80
2010,10,19,11,30,12.80
2010,10,19,11,31,12.80
2010,10,19,11,32,12.80
2010,10,19,11,33,12.70
2010,10,19,11,34,12.70
2010,10,19,11,35,12.80
2010,10,19,11,36,12.80
2010,10,19,11,37,12.90
2010,10,19,11,38,13.00
2010,10,19,11,39,13.00
2010,10,19,11,40,13.00
2010,10,19,11,41,13.00
2010,10,19,11,42,12.90
2010,10,19,11,43,12.90
2010,10,19,11,44,12.90
2010,10,19,11,45,13.00
2010,10,19,11,46,13.10
2010,10,19,11,47,13.20
2010,10,19,11,48,13.20
2010,10,19,11,49,13.30
2010,10,19,11,50,13.30
2010,10,19,11,51,13.30
2010,10,19,11,52,13.30
2010,10,19,11,53,13.40
2010,10,19,11,54,13.40
2010,10,19,11,55,13.40
2010,10,19,11,56,13.30
2010,10,19,11,57,13.40
2010,10,19,11,58,13.50
2010,10,19,11,59,13.50
2010,10,19,12,00,13.50
2010,10,19,12,01,13.50
2010,10,19,12,02,13.60
2010,10,19,12,03,13.70
2010,10,19,12,04,13.70
2010,10,19,12,05,13.70
2010,10,19,12,06,13.70
2010,10,19,12,07,13.70
2010,10,19,12,08,13.70
2010,10,19,12,09,13.60
2010,10,19,12,10,13.60
2010,10,19,12,11,13.50
2010,10,19,12,12,13.40
2010,10,19,12,13,13.40
2010,10,19,12,14,13.30
2010,10,19,12,15,13.30
2010,10,19,12,16,13.20
2010,10,19,12,17,13.20
2010,10,19,12,18,13.30
2010,10,19,12,19,13.30
2010,10,19,12,20,13.30
2010,10,19,12,21,13.50
2010,10,19,12,22,13.50
2010,10,19,12,23,13.60
2010,10,19,12,24,13.60
2010,10,19,12,25,13.60
2010,10,19,12,26,13.60
2010,10,19,12,27,13.60
2010,10,19,12,28,13.70
2010,10,19,12,29,13.70
2010,10,19,12,30,13.70
2010,10,19,12,31,13.70
2010,10,19,12,32,13.70
2010,10,19,12,33,13.70
2010,10,19,12,34,13.70
2010,10,19,12,35,13.70
2010,10,19,12,36,13.70
2010,10,19,12,37,13.80
2010,10,19,12,38,13.80
2010,10,19,12,39,13.90
2010,10,19,12,40,13.90
2010,10,19,12,41,14.00
2010,10,19,12,42,14.10
2010,10,19,12,43,14.20
2010,10,19,12,44,14.20
2010,10,19,12,45,14.20
2010,10,19,12,46,14.20
2010,10,19,12,47,14.20
2010,10,19,12,48,14.20
2010,10,19,12,49,14.20
2010,10,19,12,50,14.00
2010,10,19,12,51,14.00
2010,10,19,12,52,14.00
2010,10,19,12,53,13.90
2010,10,19,12,54,13.90
2010,10,19,12,55,13.90
2010,10,19,12,56,13.90
2010,10,19,12,57,13.80
2010,10,19,12,58,13.90
2010,10,19,12,59,14.00
2010,10,19,13,00,14.00
2010,10,19,13,01,13.90
2010,10,19,13,02,13.80
2010,10,19,13,03,13.80
2010,10,19,13,04,13.90
2010,10,19,13,05,14.00
2010,10,19,13,06,14.10
2010,10,19,13,07,14.20
2010,10,19,13,08,14.30
2010,10,19,13,09,14.40
2010,10,19,13,10,14.50
2010,10,19,13,11,14.60
2010,10,19,13,12,14.60
2010,10,19,13,13,14.60
2010,10,19,13,14,14.60
2010,10,19,13,15,14.70
2010,10,19,13,16,14.80
2010,10,19,13,17,14.90
2010,10,19,13,18,14.90
2010,10,19,13,19,14.80
2010,10,19,13,20,14.70
2010,10,19,13,21,14.80
2010,10,19,13,22,14.80
2010,10,19,13,23,14.80
2010,10,19,13,24,14.80
2010,10,19,13,25,14.80
2010,10,19,13,26,14.80
2010,10,19,13,27,14.80
2010,10,19,13,28,14.60
2010,10,19,13,29,14.50
2010,10,19,13,30,14.40
2010,10,19,13,31,14.30
2010,10,19,13,32,14.30
2010,10,19,13,33,14.20
2010,10,19,13,34,14.20
2010,10,19,13,35,14.30
2010,10,19,13,36,14.30
2010,10,19,13,37,14.40
2010,10,19,13,38,14.40
2010,10,19,13,39,14.50
2010,10,19,13,40,14.50
2010,10,19,13,41,14.50
2010,10,19,13,42,14.50
2010,10,19,13,43,14.40
2010,10,19,13,44,14.40
2010,10,19,13,45,14.30
2010,10,19,13,46,14.20
2010,10,19,13,47,14.10
2010,10,19,13,48,14.10
2010,10,19,13,49,14.00
2010,10,19,13,50,14.10
2010,10,19,13,51,14.20
2010,10,19,13,52,14.20
2010,10,19,13,53,14.30
2010,10,19,13,54,14.30
2010,10,19,13,55,14.30
2010,10,19,13,56,14.30
2010,10,19,13,57,14.30
2010,10,19,13,58,14.40
2010,10,19,13,59,14.30
2010,10,19,14,00,14.30
2010,10,19,14,01,14.30
2010,10,19,14,02,14.40
2010,10,19,14,03,14.50
2010,10,19,14,04,14.60
2010,10,19,14,05,14.80
2010,10,19,14,06,14.80
2010,10,19,14,07,15.00
2010,10,19,14,08,15.00
2010,10,19,14,09,15.10
2010,10,19,14,10,15.00
2010,10,19,14,11,14.90
2010,10,19,14,12,14.90
2010,10,19,14,13,14.90
2010,10,19,14,14,14.80
2010,10,19,14,15,14.80
2010,10,19,14,16,14.80
2010,10,19,14,17,14.80
2010,10,19,14,18,14.60
2010,10,19,14,19,14.60
2010,10,19,14,20,14.50
2010,10,19,14,21,14.50
2010,10,19,14,22,14.50
2010,10,19,14,23,14.60
2010,10,19,14,24,14.60
2010,10,19,14,25,14.60
2010,10,19,14,26,14.60
2010,10,19,14,27,14.60
2010,10,19,14,28,14.60
2010,10,19,14,29,14.70
2010,10,19,14,30,14.80
2010,10,19,14,31,14.90
2010,10,19,14,32,14.90
2010,10,19,14,33,15.00
2010,10,19,14,34,15.00
2010,10,19,14,35,14.90
2010,10,19,14,36,14.80
2010,10,19,14,37,14.80
2010,10,19,14,38,14.80
2010,10,19,14,39,14.90
2010,10,19,14,40,15.00
2010,10,19,14,41,15.10
2010,10,19,14,42,15.10
2010,10,19,14,43,15.10
2010,10,19,14,44,15.20
2010,10,19,14,45,15.20
2010,10,19,14,46,15.20
2010,10,19,14,47,15.30
2010,10,19,14,48,15.30
2010,10,19,14,49,15.30
2010,10,19,14,50,15.20
2010,10,19,14,51,15.20
2010,10,19,14,52,15.20
2010,10,19,14,53,15.30
2010,10,19,14,54,15.30
2010,10,19,14,55,15.20
2010,10,19,14,56,15.10
2010,10,19,14,57,15.10
2010,10,19,14,58,15.10
2010,10,19,14,59,15.00
2010,10,19,15,00,14.90
2010,10,19,15,01,14.80
2010,10,19,15,02,14.70
2010,10,19,15,03,14.50
2010,10,19,15,04,14.50
2010,10,19,15,05,14.40
2010,10,19,15,06,14.40
2010,10,19,15,07,14.30
2010,10,19,15,08,14.30
2010,10,19,15,09,14.30
2010,10,19,15,10,14.20
2010,10,19,15,11,14.20
2010,10,19,15,12,14.20
2010,10,19,15,13,14.20
2010,10,19,15,14,14.20
2010,10,19,15,15,14.30
2010,10,19,15,16,14.30
2010,10,19,15,17,14.40
2010,10,19,15,18,14.50
2010,10,19,15,19,14.60
2010,10,19,15,20,14.70
2010,10,19,15,21,14.80
2010,10,19,15,22,14.80
2010,10,19,15,23,14.80
2010,10,19,15,24,14.80
2010,10,19,15,25,14.80
2010,10,19,15,26,14.80
2010,10,19,15,27,14.70
2010,10,19,15,28,14.70
2010,10,19,15,29,14.80
2010,10,19,15,30,14.80
2010,10,19,15,31,14.70
2010,10,19,15,32,14.60
2010,10,19,15,33,14.60
2010,10,19,15,34,14.60
2010,10,19,15,35,14.40
2010,10,19,15,36,14.30
2010,10,19,15,37,14.20
2010,10,19,15,38,14.20
2010,10,19,15,39,14.20
2010,10,19,15,40,14.20
2010,10,19,15,41,14.20
2010,10,19,15,42,14.20
2010,10,19,15,43,14.20
2010,10,19,15,44,14.20
2010,10,19,15,45,14.30
2010,10,19,15,46,14.40
2010,10,19,15,47,14.50
2010,10,19,15,48,14.50
2010,10,19,15,49,14.50
2010,10,19,15,50,14.60
2010,10,19,15,51,14.60
2010,10,19,15,52,14.70
2010,10,19,15,53,14.80
2010,10,19,15,54,14.80
2010,10,19,15,55,14.80
2010,10,19,15,56,14.70
2010,10,19,15,57,14.60
2010,10,19,15,58,14.70
2010,10,19,15,59,14.70
2010,10,19,16,00,14.60
2010,10,19,16,01,14.60
2010,10,19,16,02,14.60
2010,10,19,16,03,14.50
2010,10,19,16,04,14.40
2010,10,19,16,05,14.20
2010,10,19,16,06,14.20
2010,10,19,16,07,14.20
2010,10,19,16,08,14.20
2010,10,19,16,09,14.20
2010,10,19,16,10,14.20
2010,10,19,16,11,14.20
2010,10,19,16,12,14.20
2010,10,19,16,13,14.20
2010,10,19,16,14,14.20
2010,10,19,16,15,14.20
2010,10,19,16,16,14.20
2010,10,19,16,17,14.20
2010,10,19,16,18,14.20
2010,10,19,16,19,14.20
2010,10,19,16,20,14.20
2010,10,19,16,21,14.20
2010,10,19,16,22,14.20
2010,10,19,16,23,14.20
2010,10,19,16,24,14.20
2010,10,19,16,25,14.30
2010,10,19,16,26,14.40
2010,10,19,16,27,14.40
2010,10,19,16,28,14.40
2010,10,19,16,29,14.40
2010,10,19,16,30,14.30
2010,10,19,16,31,14.30
2010,10,19,16,32,14.20
2010,10,19,16,33,14.10
2010,10,19,16,34,14.10
2010,10,19,16,35,14.00
2010,10,19,16,36,14.00
2010,10,19,16,37,14.10
2010,10,19,16,38,14.20
2010,10,19,16,39,14.20
2010,10,19,16,40,14.10
2010,10,19,16,41,14.10
2010,10,19,16,42,14.10
2010,10,19,16,43,14.00
2010,10,19,16,44,14.00
2010,10,19,16,45,13.90
2010,10,19,16,46,14.00
2010,10,19,16,47,13.90
2010,10,19,16,48,13.90
2010,10,19,16,49,13.80
2010,10,19,16,50,13.70
2010,10,19,16,51,13.70
2010,10,19,16,52,13.60
2010,10,19,16,53,13.60
2010,10,19,16,54,13.60
2010,10,19,16,55,13.50
2010,10,19,16,56,13.50
2010,10,19,16,57,13.60
2010,10,19,16,58,13.60
2010,10,19,16,59,13.70
2010,10,19,17,00,13.70
2010,10,19,17,01,13.70
2010,10,19,17,02,13.70
2010,10,19,17,03,13.70
2010,10,19,17,04,13.70
2010,10,19,17,05,13.60
2010,10,19,17,06,13.60
2010,10,19,17,07,13.60
2010,10,19,17,08,13.50
2010,10,19,17,09,13.60
2010,10,19,17,10,13.50
2010,10,19,17,11,13.50
2010,10,19,17,12,13.50
2010,10,19,17,13,13.60
2010,10,19,17,14,13.60
2010,10,19,17,15,13.60
2010,10,19,17,16,13.60
2010,10,19,17,17,13.60
2010,10,19,17,18,13.70
2010,10,19,17,19,13.70
2010,10,19,17,20,13.80
2010,10,19,17,21,13.90
2010,10,19,17,22,14.00
2010,10,19,17,23,14.00
2010,10,19,17,24,14.10
2010,10,19,17,25,14.20
2010,10,19,17,26,14.20
2010,10,19,17,27,14.20
2010,10,19,17,28,14.30
2010,10,19,17,29,14.40
2010,10,19,17,30,14.50
2010,10,19,17,31,14.50
2010,10,19,17,32,14.60
2010,10,19,17,33,14.60
2010,10,19,17,34,14.60
2010,10,19,17,35,14.60
2010,10,19,17,36,14.50
2010,10,19,17,37,14.50
2010,10,19,17,38,14.50
2010,10,19,17,39,14.50
2010,10,19,17,40,14.40
2010,10,19,17,41,14.40
2010,10,19,17,42,14.30
2010,10,19,17,43,14.30
2010,10,19,17,44,14.30
2010,10,19,17,45,14.20
2010,10,19,17,46,14.20